Regional Weather Roundup
Issued by NWS

Home | Current Version | Previous Version | Graphics & Text | Print | Product List | Glossary On
Versions: 1 2 3 4 5 6 7 8 9 10 11 12 13 14 15 16 17 18 19 20 21 22 23 24 25 26 27 28 29 30 31 32 33 34 35 36 37 38 39 40 41 42 43 44 45 46 47 48 49 50
000
ASUS43 KFSD 292010
RWRSD

WEATHER ROUNDUP FOR SOUTH DAKOTA
NATIONAL WEATHER SERVICE SIOUX FALLS SD
300 PM CDT FRI MAY 29 2015

NOTE: "FAIR" INDICATES FEW OR NO CLOUDS BELOW 12,000 FEET WITH NO
SIGNIFICANT WEATHER AND/OR OBSTRUCTIONS TO VISIBILITY.


SDZ001>005-009-010-012>017-292100-
NORTHWEST AND NORTH CENTRAL SOUTH DAKOTA

CITY           SKY/WX    TMP DP  RH WIND       PRES   REMARKS
BUFFALO          N/A     52  35  52 N10G18    30.22R
FAITH            N/A     52  37  56 N15G22    30.25R
MOBRIDGE       CLOUDY    53  40  61 N18G26    30.20R
$$

SDZ012>016-024>037-041>051-057-063-072>074-292100-
SOUTHWEST AND SOUTH CENTRAL SOUTH DAKOTA

CITY           SKY/WX    TMP DP  RH WIND       PRES   REMARKS
RAPID CTY ARPT CLOUDY    50  45  83 N20       30.26S
PIERRE         CLOUDY    51  45  79 N17G23    30.18R
CUSTER         PTSUNNY   58  42  55 VRB5      30.23R
ELLSWORTH AFB  PTSUNNY   52  46  82 N23       30.25
PHILIP         CLOUDY    49  45  86 N17G25    30.24R
PINE RIDGE     CLOUDY    48  44  86 N14       30.25R
SPEARFISH      PTSUNNY   50  41  71 NW12      30.30S
WINNER         CLOUDY    53  47  79 N23G31    30.14R
$$

SDZ004>011-016>023-039-040-292100-
NORTHEAST SOUTH DAKOTA

CITY           SKY/WX    TMP DP  RH WIND       PRES   REMARKS
ABERDEEN       CLOUDY    52  42  69 N21G29    30.17R
WATERTOWN      LGT RAIN  49  45  86 N21G28    30.07R
BROOKINGS      CLOUDY    50  45  81 N22G30    30.04R
SISSETON         N/A     49  44  83 N26G37    30.10R
$$

SDZ017-020-022-023-036>040-048>070-292100-
SOUTHEAST SOUTH DAKOTA

CITY           SKY/WX    TMP DP  RH WIND       PRES   REMARKS
SIOUX FALLS    CLOUDY    56  53  90 N18G24    29.97S
HURON          LGT RAIN  53  46  77 N30G38    30.09R
CHAMBERLAIN    CLOUDY    51  48  90 N25       30.13R
MITCHELL       CLOUDY    53  50  89 N23G31    30.07R
YANKTON        CLOUDY    61  57  88 N24G30    29.96R
$$

ABBREVIATIONS USED IN REMARKS
   TC - TEMPERATURE IN CELSIUS
  WCI - WIND CHILL INDEX
   HX - HEAT INDEX
  VSB - VISIBILITY



USA.gov is the U.S. government's official web portal to all federal, state and local government web resources and services.